Time,TemperatureF,DewpointF,PressureIn,WindDirection,WindDirectionDegrees,WindSpeedMPH,WindSpeedGustMPH,Humidity,HourlyPrecipIn,Conditions,Clouds,dailyrainin,SoftwareType,DateUTC
2013-03-02 00:01:00,44.0,40.0,-100.00,South,190,1.0,3.0,85,-99.99,,,-99.99,,2013-03-02 08:01:00,
2013-03-02 00:10:00,43.0,40.0,-100.00,SSW,200,1.0,3.0,89,-99.99,,,-99.99,,2013-03-02 08:10:00,
2013-03-02 01:01:00,43.0,40.0,-100.00,SSW,200,1.0,3.0,89,-99.99,,,-99.99,,2013-03-02 09:01:00,
2013-03-02 01:10:00,43.0,40.0,-100.00,SW,225,2.0,5.0,89,-99.99,,,-99.99,,2013-03-02 09:10:00,
2013-03-02 02:01:00,43.0,40.0,-100.00,SW,225,2.0,5.0,89,-99.99,,,-99.99,,2013-03-02 10:01:00,
2013-03-02 02:10:00,44.0,40.0,-100.00,SSW,205,5.0,7.0,85,-99.99,,,-99.99,,2013-03-02 10:10:00,
2013-03-02 03:01:00,44.0,40.0,-100.00,SSW,205,5.0,7.0,85,-99.99,,,-99.99,,2013-03-02 11:01:00,
2013-03-02 03:10:00,43.0,39.0,-100.00,SSW,210,3.0,6.0,85,-99.99,,,-99.99,,2013-03-02 11:10:00,
2013-03-02 04:02:00,43.0,39.0,-100.00,SSW,210,3.0,6.0,85,-99.99,,,-99.99,,2013-03-02 12:02:00,
2013-03-02 04:10:00,42.0,38.0,-100.00,South,185,1.0,3.0,85,-99.99,,,-99.99,,2013-03-02 12:10:00,
2013-03-02 05:01:00,42.0,38.0,-100.00,South,185,1.0,3.0,85,-99.99,,,-99.99,,2013-03-02 13:01:00,
2013-03-02 05:10:00,42.0,39.0,-100.00,South,180,3.0,6.0,89,-99.99,,,-99.99,,2013-03-02 13:10:00,
2013-03-02 06:01:00,42.0,39.0,-100.00,South,180,3.0,6.0,89,-99.99,,,-99.99,,2013-03-02 14:01:00,
2013-03-02 06:10:00,43.0,39.0,-100.00,South,185,5.0,8.0,85,-99.99,,,-99.99,,2013-03-02 14:10:00,
2013-03-02 07:02:00,43.0,39.0,-100.00,South,185,5.0,8.0,85,-99.99,,,-99.99,,2013-03-02 15:02:00,
2013-03-02 07:10:00,43.0,39.0,-100.00,SSW,195,5.0,8.0,85,-99.99,,,-99.99,,2013-03-02 15:10:00,
2013-03-02 08:01:00,43.0,39.0,-100.00,SSW,195,5.0,8.0,85,-99.99,,,-99.99,,2013-03-02 16:01:00,
2013-03-02 08:10:00,44.0,39.0,-100.00,South,175,5.0,7.0,82,-99.99,,,-99.99,,2013-03-02 16:10:00,
2013-03-02 09:01:00,44.0,39.0,-100.00,South,175,5.0,7.0,82,-99.99,,,-99.99,,2013-03-02 17:01:00,
2013-03-02 09:10:00,47.0,39.0,-100.00,South,175,5.0,9.0,73,-99.99,,,-99.99,,2013-03-02 17:10:00,
2013-03-02 10:01:00,47.0,39.0,-100.00,South,175,5.0,9.0,73,-99.99,,,-99.99,,2013-03-02 18:01:00,
2013-03-02 10:10:00,50.0,40.0,-100.00,South,175,3.0,7.0,68,-99.99,,,-99.99,,2013-03-02 18:10:00,
2013-03-02 11:01:00,50.0,40.0,-100.00,South,175,3.0,7.0,68,-99.99,,,-99.99,,2013-03-02 19:01:00,
2013-03-02 11:10:00,51.0,40.0,-100.00,SSE,155,8.0,14.0,65,-99.99,,,-99.99,,2013-03-02 19:10:00,
2013-03-02 12:01:00,51.0,40.0,-100.00,SSE,155,8.0,14.0,65,-99.99,,,-99.99,,2013-03-02 20:01:00,
2013-03-02 12:10:00,53.0,40.0,-100.00,South,170,9.0,15.0,61,-99.99,,,-99.99,,2013-03-02 20:10:00,
2013-03-02 13:02:00,53.0,40.0,-100.00,South,170,9.0,15.0,61,-99.99,,,-99.99,,2013-03-02 21:02:00,
2013-03-02 13:10:00,53.0,40.0,-100.00,South,190,5.0,13.0,61,-99.99,,,-99.99,,2013-03-02 21:10:00,
2013-03-02 14:01:00,53.0,40.0,-100.00,South,190,5.0,13.0,61,-99.99,,,-99.99,,2013-03-02 22:01:00,
2013-03-02 14:10:00,54.0,40.0,-100.00,South,170,6.0,14.0,58,-99.99,,,-99.99,,2013-03-02 22:10:00,
2013-03-02 15:01:00,54.0,40.0,-100.00,South,170,6.0,14.0,58,-99.99,,,-99.99,,2013-03-02 23:01:00,
2013-03-02 15:10:00,55.0,41.0,-100.00,SE,140,2.0,6.0,59,-99.99,,,-99.99,,2013-03-02 23:10:00,
2013-03-02 16:02:00,55.0,41.0,-100.00,SE,140,2.0,6.0,59,-99.99,,,-99.99,,2013-03-03 00:02:00,
2013-03-02 16:10:00,53.0,41.0,-100.00,South,185,5.0,15.0,63,-99.99,,,-99.99,,2013-03-03 00:10:00,
2013-03-02 17:01:00,53.0,41.0,-100.00,South,185,5.0,15.0,63,-99.99,,,-99.99,,2013-03-03 01:01:00,
2013-03-02 17:10:00,52.0,42.0,-100.00,SW,220,3.0,6.0,68,-99.99,,,-99.99,,2013-03-03 01:10:00,
2013-03-02 18:01:00,52.0,42.0,-100.00,SW,220,3.0,6.0,68,-99.99,,,-99.99,,2013-03-03 02:01:00,
2013-03-02 18:10:00,51.0,40.0,-100.00,SW,215,5.0,8.0,65,-99.99,,,-99.99,,2013-03-03 02:10:00,
2013-03-02 19:01:00,51.0,40.0,-100.00,SW,215,5.0,8.0,65,-99.99,,,-99.99,,2013-03-03 03:01:00,
2013-03-02 19:10:00,50.0,41.0,-100.00,SSW,195,9.0,13.0,71,-99.99,,,-99.99,,2013-03-03 03:10:00,
2013-03-02 20:01:00,50.0,41.0,-100.00,SSW,195,9.0,13.0,71,-99.99,,,-99.99,,2013-03-03 04:01:00,
2013-03-02 20:10:00,49.0,41.0,-100.00,SW,220,9.0,17.0,73,-99.99,,,-99.99,,2013-03-03 04:10:00,
2013-03-02 21:01:00,49.0,41.0,-100.00,SW,220,9.0,17.0,73,-99.99,,,-99.99,,2013-03-03 05:01:00,
2013-03-02 21:10:00,48.0,41.0,-100.00,SSW,210,12.0,17.0,76,-99.99,,,-99.99,,2013-03-03 05:10:00,
2013-03-02 22:01:00,48.0,41.0,-100.00,SSW,210,12.0,17.0,76,-99.99,,,-99.99,,2013-03-03 06:01:00,
2013-03-02 22:10:00,47.0,41.0,-100.00,SSW,205,10.0,18.0,79,-99.99,,,-99.99,,2013-03-03 06:10:00,
2013-03-02 23:01:00,47.0,41.0,-100.00,SSW,205,10.0,18.0,79,-99.99,,,-99.99,,2013-03-03 07:01:00,
2013-03-02 23:10:00,45.0,40.0,-100.00,SSW,195,10.0,20.0,82,-99.99,,,-99.99,,2013-03-03 07:10:00,